[[{"header":{"parameterUnit":"m.s-1","parameterCategory":1,"la1":30.2991,"la2":30.254,"lo1":-89.0895,"lo2":-89.0444,"dy":0.0017,"dx":0.0017,"nx":28,"ny":28,"refTime":"2024-07-14T21:00:00:Z","depth":0,"parameterNumber":2,"parameterNumberName":"U-component_of_WINDS"},"data":[0,0,0,0,0,0,0,0,0,0,0,0,0,0,0,0,0,0,0,0,0,0,0,0,0,0,0,0,0,0,0,0,0,0,0,0,0,0,0,0,0,0,0,0,0,0,0,0,0,0,0,0,0,0,0,0,0,0,3.5435,3.5436,0,3.5564,3.5565,3.5567,3.5539,3.5536,3.5534,3.5532,3.5664,3.5669,3.5675,0,0,0,0,0,0,0,0,0,0,0,0,0,3.5163,3.5168,3.5435,3.5436,3.5438,3.5563,3.5565,3.5567,3.5539,3.5536,3.5533,3.5531,3.5662,3.5669,3.5675,0,0,0,0,0,0,0,0,0,0,0,0,0,3.5285,3.517,3.5434,3.5439,3.5441,3.5563,3.5565,3.5567,3.554,3.5536,3.5533,3.5529,3.5659,3.5668,3.5676,3.5802,0,0,3.5703,3.5706,0,0,0,0,0,0,0,0,3.5278,3.5295,3.5437,3.5439,3.5441,3.5531,3.5518,3.5646,3.5541,3.5502,3.5532,3.5528,3.5623,3.5634,3.5666,3.5808,3.5813,3.5703,3.5709,3.5712,3.5715,0,0,0,0,0,0,0,3.527,3.5289,3.5486,3.5439,3.5442,3.5434,3.5448,3.5542,3.5581,3.5505,3.5504,3.5519,3.5623,3.5658,3.5669,3.5815,3.5703,3.5711,3.5716,3.572,3.6062,3.6066,0,0,0,0,0,0,3.526,3.5283,3.5482,3.549,3.5349,3.5442,3.5457,3.5506,3.558,3.5588,3.5522,3.5518,3.5645,3.5659,3.5673,3.5822,3.5712,3.572,3.5725,3.6058,3.6063,3.6067,0,0,0,0,0,0,3.5254,3.5278,3.5476,3.5386,3.541,3.5451,3.5506,3.5511,3.5545,3.5593,3.5599,3.5551,3.5643,3.5661,3.5769,3.5826,3.5724,3.5732,3.6054,3.606,3.6065,3.6122,0,0,0,0,0,0,3.5246,3.5276,3.5324,3.5387,3.5415,3.5571,3.551,3.5516,3.556,3.5555,3.5621,3.5629,3.5641,3.5756,3.5778,3.5836,3.5739,3.6049,3.6057,3.6063,3.6115,3.6129,3.6141,0,0,0,0,0,3.5237,3.5336,3.5327,3.5351,3.5477,3.5574,3.559,3.5603,3.5565,3.5613,3.5643,3.5626,3.5817,3.5768,3.5791,3.5853,3.6045,3.6054,3.6063,3.6109,3.6126,3.614,0,0,0,0,0,0,3.528,3.5344,3.5335,3.5458,3.5511,3.5569,3.5631,3.5621,3.5686,3.5678,3.5691,3.5706,3.5815,3.5845,3.5789,3.5977,3.5926,3.594,3.5953,3.5969,3.5982,3.5971,3.5746,0,0,0,0,0,3.5303,3.5377,3.543,3.5533,3.556,3.5591,3.5634,3.5638,3.5694,3.5716,3.5754,3.5808,3.5879,3.5926,3.5995,3.612,3.6132,3.6174,3.6187,3.6197,3.6208,3.6273,3.6291,3.6097,3.6096,3.6096,0,0,3.5353,3.5398,3.5444,3.5542,3.5584,3.5658,3.561,3.5692,3.5747,3.5728,3.5831,3.5861,3.5922,3.6038,3.6091,3.6066,3.6265,3.6208,3.6216,3.6222,3.6284,3.6302,3.6319,3.6103,3.6101,3.6101,0,0,3.5481,3.5524,3.5613,3.5655,3.5718,3.5737,3.5759,3.5819,3.5837,3.5941,3.5927,3.5993,3.6117,3.616,3.6198,3.634,3.6326,3.6362,3.6429,3.6492,3.6507,3.6521,3.6568,3.6586,3.6374,3.6374,3.6374,0,3.5535,3.5648,3.566,3.5742,3.5785,3.5771,3.586,3.59,3.5982,3.6012,3.5983,3.6136,3.6177,3.6301,3.6335,3.6367,3.639,3.6354,3.6504,3.6518,3.6531,3.6576,3.6594,3.6378,3.6378,3.6377,3.6377,0,3.5709,3.5788,3.5852,3.593,3.598,3.6066,3.6089,3.6139,3.6139,3.6161,3.6265,3.6313,3.6389,3.642,3.6422,3.6543,3.6525,3.6501,3.6449,3.6553,3.6596,3.6613,3.6383,3.6382,3.6381,3.638,0,0,3.5869,3.5951,3.5974,3.6008,3.6075,3.6136,3.622,3.6294,3.6334,3.6392,3.646,3.6565,3.6541,3.6584,3.6591,3.6646,3.6752,3.6614,3.6616,3.6636,3.6885,3.6901,3.6921,3.6743,3.6747,3.6749,3.6879,0,3.6,3.6148,3.616,3.6292,3.6363,3.635,3.6422,3.6471,3.6494,3.6556,3.6581,3.6653,3.6619,3.6644,3.6699,3.6727,3.6801,3.6719,3.6805,3.6808,3.6788,3.6944,3.6962,3.7081,3.6896,3.6899,3.6901,0,3.6175,3.6235,3.6374,3.6428,3.6459,3.6524,3.6591,3.6652,3.6706,3.6718,3.6765,3.6763,3.6848,3.6794,3.6909,3.6853,3.6889,3.6908,3.6913,3.692,3.6859,3.6952,3.712,3.7137,3.6928,3.6926,3.6924,0,3.6272,3.6389,3.6486,3.6516,3.6583,3.6629,3.6659,3.6709,3.6752,3.6811,3.6839,3.6907,3.6944,3.6997,3.7013,3.6973,3.7126,3.7075,3.7137,3.7136,3.7168,3.7165,3.7342,3.7196,3.7196,3.7196,3.7195,0,3.6417,3.6502,3.6531,3.659,3.6684,3.6697,3.6789,3.6816,3.6861,3.6924,3.6918,3.6978,3.6996,3.7059,3.7072,3.7163,3.7181,3.7192,3.7194,3.7191,3.7189,3.7213,3.7204,3.72,3.7199,3.7198,3.7198,0,3.6542,3.6565,3.6669,3.6724,3.6739,3.6805,3.6851,3.6908,3.6929,3.7009,3.7029,3.7062,3.7135,3.7156,3.7245,3.7254,3.736,3.7356,3.7341,3.734,3.74,3.7392,3.7595,3.7621,3.7462,3.7463,3.7464,0,3.6631,3.6696,3.6756,3.6798,3.6829,3.6898,3.694,3.6955,3.7,3.7065,3.7113,3.7185,3.7243,3.736,3.7392,3.7458,3.7454,3.752,3.7464,3.7458,3.7451,3.7446,3.7451,3.753,3.7532,3.7533,3.7534,0,3.6786,3.6794,3.6856,3.6922,3.6974,3.7027,3.7077,3.7112,3.7133,3.7184,3.7258,3.7303,3.7392,3.7462,3.753,3.7559,3.755,3.7552,3.7569,3.7566,3.7553,3.7557,3.7367,3.7547,3.7546,3.7545,3.7544,3.7544,3.6894,3.6949,3.7,3.7069,3.7108,3.7155,3.7209,3.7237,3.7299,3.7372,3.7377,3.7456,3.7506,3.7595,3.7628,3.769,3.767,3.7696,3.7702,3.7707,3.771,3.7545,3.7703,3.7702,3.7702,3.7702,3.7701,0,3.7046,3.7077,3.7141,3.7211,3.7264,3.7251,3.7306,3.7351,3.7421,3.7468,3.7525,3.7608,3.7676,3.7712,3.7779,3.7821,3.7818,3.7838,3.7834,3.784,3.7726,3.7703,3.7839,3.7839,3.7839,3.7839,3.7839,3.7839,3.7131,3.7223,3.7236,3.7346,3.7377,3.7454,3.7486,3.7528,3.7566,3.7659,3.7715,3.7738,3.778,3.785,3.7911,3.792,3.7943,3.7965,3.7971,3.7863,3.7849,3.7835,3.7813,3.7971,3.7971,3.808,3.8081,3.8081]},{"header":{"parameterUnit":"m.s-1","parameterCategory":1,"la1":30.2991,"la2":30.254,"lo1":-89.0895,"lo2":-89.0444,"dy":0.0017,"dx":0.0017,"nx":28,"ny":28,"refTime":"2024-07-14T21:00:00:Z","depth":0,"parameterNumber":3,"parameterNumberName":"V-component_of_WINDS"},"data":[0,0,0,0,0,0,0,0,0,0,0,0,0,0,0,0,0,0,0,0,0,0,0,0,0,0,0,0,0,0,0,0,0,0,0,0,0,0,0,0,0,0,0,0,0,0,0,0,0,0,0,0,0,0,0,0,0,0,1.7706,1.7706,0,1.772,1.772,1.7721,1.7694,1.7693,1.7692,1.7691,1.7705,1.7707,1.7708,0,0,0,0,0,0,0,0,0,0,0,0,0,1.7655,1.7656,1.7706,1.7706,1.7706,1.772,1.772,1.7721,1.7694,1.7693,1.7691,1.769,1.7705,1.7707,1.7708,0,0,0,0,0,0,0,0,0,0,0,0,0,1.7674,1.7656,1.7706,1.7695,1.7694,1.772,1.772,1.7721,1.7694,1.7693,1.7691,1.769,1.7705,1.7706,1.7708,1.7746,0,0,1.7714,1.7715,0,0,0,0,0,0,0,0,1.7673,1.7676,1.7696,1.7696,1.7695,1.7704,1.7708,1.7729,1.7694,1.7694,1.7691,1.7689,1.7706,1.7708,1.7713,1.7747,1.7748,1.7714,1.7715,1.7716,1.7716,0,0,0,0,0,0,0,1.7672,1.7675,1.7712,1.7697,1.7696,1.7689,1.769,1.7712,1.7707,1.7694,1.7692,1.7694,1.7705,1.7712,1.7713,1.7748,1.7714,1.7716,1.7717,1.7717,1.7812,1.7814,0,0,0,0,0,0,1.7672,1.7674,1.7711,1.7712,1.768,1.7691,1.7692,1.7702,1.7707,1.7706,1.7695,1.7693,1.7709,1.7711,1.7714,1.7758,1.7716,1.7718,1.7719,1.7811,1.7813,1.7814,0,0,0,0,0,0,1.7671,1.7675,1.7711,1.7693,1.7697,1.7693,1.7705,1.7703,1.7709,1.7708,1.7707,1.7702,1.7708,1.7711,1.7738,1.7758,1.7718,1.772,1.7809,1.7811,1.7813,1.7847,0,0,0,0,0,0,1.7669,1.7675,1.769,1.7693,1.7698,1.7735,1.7706,1.7704,1.7713,1.771,1.7714,1.7714,1.7707,1.7736,1.774,1.776,1.7721,1.7807,1.781,1.7813,1.7844,1.785,1.7855,0,0,0,0,0,1.7668,1.7699,1.7691,1.7696,1.7716,1.7736,1.7739,1.7731,1.7714,1.7729,1.7728,1.7714,1.7755,1.7739,1.7743,1.7764,1.7806,1.7809,1.7812,1.7842,1.7849,1.7855,0,0,0,0,0,0,1.7699,1.77,1.769,1.7724,1.773,1.7732,1.775,1.7739,1.775,1.7747,1.7736,1.7737,1.7766,1.7768,1.7749,1.78,1.7778,1.7782,1.7798,1.7805,1.7811,1.7809,1.7723,0,0,0,0,0,1.771,1.7726,1.7726,1.7756,1.7759,1.7754,1.7763,1.7755,1.7762,1.7764,1.7765,1.7772,1.7786,1.7796,1.7809,1.7844,1.7844,1.7861,1.7866,1.7871,1.7874,1.7892,1.7899,1.7825,1.7825,1.7824,0,0,1.7732,1.7735,1.7746,1.7762,1.7766,1.7783,1.7757,1.7776,1.7788,1.7767,1.7793,1.7793,1.78,1.7831,1.7844,1.7833,1.7895,1.7875,1.7878,1.788,1.7896,1.7903,1.7909,1.7827,1.7826,1.7826,0,0,1.7782,1.7786,1.781,1.7815,1.7821,1.7817,1.7823,1.7826,1.7826,1.7851,1.7835,1.7849,1.7874,1.7879,1.7885,1.7935,1.7922,1.7939,1.7968,1.7985,1.7991,1.7996,1.8013,1.802,1.7943,1.7943,1.7943,0,1.7809,1.7834,1.7824,1.7844,1.7851,1.7833,1.7857,1.7862,1.7872,1.7877,1.7864,1.7894,1.7898,1.7929,1.7941,1.7946,1.7952,1.7939,1.7991,1.7996,1.8001,1.8017,1.8023,1.7945,1.7945,1.7945,1.7945,0,1.7867,1.7885,1.7904,1.7913,1.7923,1.7945,1.7938,1.7948,1.794,1.7937,1.7962,1.7965,1.7978,1.7985,1.7977,1.8015,1.8007,1.7993,1.797,1.801,1.8025,1.8031,1.7948,1.7947,1.7947,1.7946,0,0,1.7938,1.7941,1.7948,1.7951,1.7956,1.7969,1.799,1.8002,1.8011,1.8019,1.8035,1.8056,1.8043,1.8049,1.8042,1.8057,1.8095,1.8041,1.8041,1.805,1.8136,1.8146,1.8153,1.8087,1.8088,1.8089,1.8135,0,1.7986,1.8022,1.8013,1.8048,1.8063,1.8045,1.8063,1.8068,1.8066,1.8078,1.8076,1.809,1.8072,1.8075,1.809,1.8088,1.8112,1.8084,1.8102,1.8103,1.81,1.8161,1.8172,1.8216,1.8141,1.8142,1.8142,0,1.8048,1.8057,1.8094,1.8095,1.8101,1.8117,1.8127,1.8139,1.8144,1.8141,1.8148,1.8137,1.8157,1.8133,1.816,1.8141,1.8148,1.8148,1.8149,1.815,1.8125,1.8163,1.8229,1.8236,1.8151,1.8151,1.815,0,1.8095,1.8116,1.814,1.8144,1.8146,1.8158,1.8159,1.8162,1.817,1.8178,1.8183,1.8194,1.82,1.8208,1.82,1.8184,1.8228,1.8204,1.8226,1.8226,1.8236,1.8235,1.8303,1.8241,1.8241,1.8241,1.824,0,1.815,1.8173,1.8161,1.8176,1.8201,1.819,1.8215,1.8214,1.8217,1.8231,1.8216,1.8229,1.8218,1.8231,1.8225,1.8247,1.825,1.8248,1.8246,1.8249,1.825,1.8253,1.825,1.8242,1.8242,1.8242,1.8241,0,1.8206,1.82,1.8225,1.8224,1.8224,1.8243,1.8242,1.8255,1.8252,1.827,1.8273,1.8267,1.8281,1.8274,1.8289,1.8284,1.8313,1.8308,1.8312,1.831,1.8331,1.8329,1.8404,1.8413,1.8345,1.8346,1.8347,0,1.8241,1.8258,1.8259,1.8267,1.8269,1.8283,1.829,1.828,1.8288,1.8293,1.8306,1.8318,1.8328,1.835,1.8347,1.8358,1.8352,1.8377,1.8354,1.8356,1.8351,1.835,1.8352,1.8382,1.8383,1.8384,1.8384,0,1.8304,1.83,1.8311,1.832,1.8329,1.8336,1.8342,1.8349,1.8339,1.8348,1.8362,1.8369,1.8383,1.8395,1.8404,1.8405,1.8393,1.8392,1.8397,1.84,1.8401,1.84,1.8324,1.839,1.8389,1.8389,1.8389,1.8388,1.8351,1.8364,1.8367,1.8379,1.8382,1.8387,1.8399,1.8397,1.8408,1.8418,1.8411,1.8427,1.843,1.8441,1.8443,1.8455,1.8445,1.8453,1.8455,1.8457,1.8459,1.84,1.8457,1.8457,1.8457,1.8456,1.8456,0,1.8412,1.8412,1.8423,1.8431,1.8441,1.8428,1.8433,1.8442,1.8456,1.8459,1.8468,1.8483,1.8495,1.8492,1.8503,1.8512,1.8507,1.8515,1.8514,1.8515,1.8468,1.8462,1.852,1.852,1.852,1.852,1.852,1.852,1.8445,1.8467,1.8463,1.8486,1.8486,1.8501,1.8505,1.8509,1.8512,1.8529,1.8538,1.8537,1.8538,1.8547,1.8557,1.8556,1.856,1.8571,1.8567,1.8524,1.8518,1.8512,1.8506,1.8572,1.8572,1.8612,1.8613,1.8613]}]]